Дьябло

США     37°52′40″N   121°56′02″W
темп.,
°C
ветер,
м/с
пор.,
м/с
влажн.,
%
обл.,
%
осадки,
мм/ч
давл.,
гПа
погр.,
м
19 апреля, пн
пн1923:00+16юз354328 0.0 1018116
02:00+13юз3462100 0.0 1018122
05:00+11юз2376100 0.0 1018115
08:00+12юз23736 0.0 1019216
11:00+21з22370 0.0 1018629
14:00+25зюз442934 0.0 1017866
17:00+23юз45335 0.0 1015567
20:00+15ююз47580 0.0 1015254
20 апреля, вт
вт2023:00+11ююз46760 0.0 1015189
02:00+10ююз378748 0.0 1015204
05:00+9ююз2487100 0.0 1014182
08:00+11юз2477100 0.0 1014270
11:00+19зюз33400 0.0 1013758
14:00+22юз55330 0.0 10101226
17:00+21юз43370 0.0 10081204
20:00+17ю225698 0.1 1009174
21 апреля, ср
ср2123:00+12юз34755 0.1 1009158
02:00+11юз23810 0.0 1009125
05:00+10юз22830 0.0 100977
08:00+12юз22720 0.0 1011185
11:00+21з23330 0.0 1011869
14:00+25з44220 0.0 10091515
17:00+22зюз57310 0.0 1008568
20:00+14юз35590 0.0 1008234
22 апреля, чт
чт2223:00+11юз34770 0.0 1010176
02:00+10юз23810 0.0 1010125
05:00+9юз22830 0.0 101182
08:00+12юз22705 0.0 1012184
11:00+21з223748 0.0 1012637
14:00+24з55305 0.0 1011758
17:00+22зюз47330 0.0 1010505
20:00+14юз49660 0.0 1011296
23 апреля, пт
пт2323:00+11юз37806 0.0 1012268
02:00+9ююз378447 0.0 1012300
05:00+9ююз488596 0.0 1013416
08:00+11ююз347323 0.0 1014409
11:00+19зюз22430 0.0 1014888
14:00+24зюз43304 0.0 10121163
17:00+18юз674599 0.0 1012580
20:00+11юз61075100 0.0 1014475